Starlink 33635

operational
NORAD ID: 63065 Int'l Des: 2025-035 Owner: SPXS Country: US Constellation: starlink
LEOCIRCULAR

Starlink 33635について

説明を読み込み中...

リアルタイム位置

3D地球を読み込み中...

次回通過

高度履歴

Altitude vs Time

uPlot chart will show altitude changes over time

軌道要素

1 63065U 25035P 25258.15045016 .00052435 00000-0 18984-2 0 9990
2 63065 43.0055 58.4031 0002002 269.2665 90.7957 15.27632349 32880
Epoch: Sep 15, 2025 • Age: 15 hours

現在のステータス

高度 485.4 km
速度 7.63 km/s
衛星直下点 35.20°N, 82.81°W
打ち上げ日 Feb 21, 2025
運用期間 0.5 years
タイプ internet

技術仕様

分類 Payload
質量 575.00 kg
乾燥質量 530.00 kg
総質量 575.00 kg
長さ 0.30 m
直径 4.10 m
スパン 29.00 m
形状 Box + pan
製造者 SPXS
バスタイプ Starlink V2MO
フェーズステータス In Orbit
所有者/国 SPXS/US

大規模コンステレーション

Loading constellations...